Wetbulb
73.79 75.89 77.51 77.52 77.22 77.83 77.61 77.38 77.15 77.00 77.29 77.40 77.71 77.21 77.13 77.00 76.73 76.64 76.35 76.02 76.22 75.72 75.95 75.92 76.17 75.41 75.25 75.72 73.48 73.31 74.64 74.82 74.92 74.25 75.52 75.98 75.70 75.66 76.00 75.90 76.65 76.92 76.70
73.54 75.79 78.02 77.72 77.15 77.86 77.41 77.34 77.46 77.26 77.01 77.15 77.26 77.51 77.06 76.76 76.40 76.21 76.08 75.97 75.89 75.45 75.83 76.31 76.03 76.03 75.89 75.28 75.42 75.64 75.64 75.45 75.06 75.09 76.17 76.50 76.49 76.25 76.26 76.24 75.74 77.56 77.17
74.14 75.43 77.01 77.66 77.53 77.76 77.72 77.42 77.36 77.34 77.21 77.15 77.26 77.32 76.97 76.70 76.51 76.16 76.05 75.72 75.67 76.14 76.30 75.72 75.92 75.97 75.95 75.70 75.53 76.03 75.91 76.05 75.92 76.00 75.89 76.18 75.95 76.52 76.74 77.15 77.18 77.63 76.97
75.04 76.59 76.79 77.79 78.23 77.74 77.74 77.20 76.96 77.07 77.04 77.14 76.75 76.88 76.72 76.53 76.27 76.17 75.78 75.47 75.96 76.32 75.97 76.11 76.06 76.33 76.22 76.11 76.32 76.07 76.15 76.47 76.22 75.89 76.62 75.72 75.40 76.40 76.95 75.13 75.58 77.36 77.44
74.48 76.74 77.84 77.28 77.35 77.46 77.40 76.33 76.10 75.74 76.07 76.09 76.66 76.73 76.28 76.27 76.38 76.30 76.27 76.10 76.17 76.25 75.83 75.42 76.27 75.70 75.61 75.61 75.67 75.39 75.28 75.70 75.86 76.15 76.18 76.92 75.73 76.22 76.66 72.83 74.09 76.50 77.41
76.05 77.00 76.92 77.42 77.27 77.45 77.29 76.74 77.44 76.42 76.71 76.09 75.72 75.86 76.44 76.62 76.51 76.49 76.66 76.46 75.97 75.70 75.22 75.79 75.64 75.36 75.53 75.17 74.95 74.92 74.47 74.69 75.28 76.02 75.25 74.50 76.65 76.11 76.00 75.86 76.27 76.50 76.31
75.28 76.20 77.46 77.78 77.31 77.20 77.30 76.80 76.48 76.40 75.79 76.37 76.14 76.13 75.94 75.83 75.94 75.89 75.61 75.70 75.83 75.83 76.13 75.00 74.64 74.48 74.20 74.05 74.13 74.14 74.19 74.59 75.81 77.01 76.03 75.21 76.47 76.30 76.14 75.92 76.00 76.30 76.58
75.13 76.12 76.91 76.94 76.67 76.99 76.78 76.97 76.24 76.67 75.77 76.34 76.05 75.88 75.78 76.30 75.90 75.95 76.25 76.15 75.99 75.70 74.92 74.53 74.42 74.37 74.14 74.33 74.23 74.54 74.48 75.24 75.86 76.44 75.96 75.88 75.74 76.57 76.14 76.44 76.63 76.13 75.90
75.01 75.88 76.46 77.02 76.11 76.72 76.75 76.61 75.95 75.74 75.99 75.52 76.11 75.83 76.42 76.42 76.19 76.09 75.89 75.86 75.47 74.83 74.89 74.45 74.70 74.31 74.50 75.31 74.78 76.02 75.94 75.56 76.63 76.40 75.68 75.93 74.75 75.62 75.70 75.72 75.85 75.91 75.92
75.54 76.13 76.73 77.14 76.66 77.52 77.05 76.20 75.05 75.65 75.82 75.82 74.92 75.57 75.76 76.07 75.91 75.47 75.30 75.77 75.09 75.17 75.42 75.22 74.00 73.81 74.16 74.62 75.56 76.04 73.82 73.03 76.55 75.71 76.66 75.81 74.78 75.42 75.80 76.21 76.03 75.98 75.40
74.55 75.45 76.30 76.58 76.38 77.06 76.25 76.32 75.28 75.15 75.62 73.98 74.88 75.47 76.03 75.25 74.54 74.44 74.94 75.14 75.70 76.08 75.86 75.70 75.11 74.70 74.39 74.89 74.42 75.23 74.98 76.62 74.95 76.32 76.62 74.05 74.28 74.89 75.14 75.92 76.01 75.70 75.80
73.06 74.24 75.11 75.52 75.62 75.78 75.56 76.27 76.16 75.80 74.85 75.14 76.22 77.07 76.75 76.84 76.22 75.84 75.48 75.27 75.11 75.06 75.58 76.14 75.99 75.32 74.94 75.84 75.16 74.06 73.80 75.88 75.01 74.97 75.85 71.99 71.96 73.37 74.69 75.17 75.28 75.65 75.42
73.95 74.49 74.72 75.29 75.40 75.08 75.18 77.92 76.76 75.24 75.36 75.53 76.12 75.15 75.85 76.06 75.76 75.48 75.95 75.73 76.98 76.39 76.25 75.22 74.94 73.67 75.37 75.36 75.23 74.97 74.51 74.68 75.27 74.67 74.98 73.30 73.51 74.19 74.67 75.25 75.00 75.27 75.83
73.54 74.13 74.73 75.28 75.61 75.38 75.46 74.79 74.75 74.73 74.62 73.50 74.24 76.02 76.44 75.65 76.49 77.47 76.34 77.76 76.69 76.82 74.37 75.61 74.67 73.55 74.89 75.34 75.25 75.14 74.73 74.53 74.90 75.06 75.28 73.39 73.78 74.10 74.83 74.89 75.36 75.60 75.67
73.02 74.11 74.41 74.70 75.41 75.32 75.42 75.05 74.79 74.56 73.03 73.39 75.42 76.71 76.74 76.78 77.10 77.06 78.23 76.89 76.73 75.78 75.48 74.61 74.58 71.61 71.82 75.02 75.28 75.49 75.14 75.03 75.34 75.01 75.04 74.65 73.79 74.51 75.10 75.53 75.99 75.77 75.38
73.37 73.73 74.61 74.49 75.11 75.41 74.97 74.69 73.75 73.72 72.17 74.90 76.07 76.37 76.87 76.66 77.45 77.04 76.93 76.78 76.69 76.59 76.18 75.40 74.83 73.70 72.66 75.33 75.94 76.28 75.65 75.80 76.11 75.82 74.78 76.00 75.13 75.16 75.27 75.74 75.89 75.11 75.55
73.48 74.09 74.22 74.24 74.77 74.83 74.46 73.85 73.10 72.71 71.32 75.04 75.14 76.47 77.08 77.61 77.62 78.03 77.19 77.10 77.97 78.33 77.96 76.24 75.56 75.84 73.62 74.74 74.90 76.29 76.16 76.05 75.71 76.04 75.35 75.25 76.23 75.36 75.33 75.60 75.55 75.52 75.16
73.23 73.75 74.45 73.95 73.64 73.86 73.39 74.42 73.15 71.00 74.06 75.06 75.25 76.44 77.33 77.80 78.28 78.61 77.15 77.76 79.01 77.91 77.55 76.68 76.59 74.97 74.76 73.45 75.00 76.32 76.15 75.76 76.07 76.25 75.91 76.35 76.42 76.71 75.42 75.59 75.64 75.61 74.61
73.31 73.89 74.08 74.10 73.54 73.31 74.04 74.46 74.37 74.77 74.68 75.10 75.69 76.22 77.55 77.80 77.91 78.00 77.11 78.95 79.75 78.86 77.81 78.07 76.60 75.76 76.12 75.26 74.15 75.44 75.87 75.75 75.91 75.19 75.62 76.51 75.99 75.78 76.30 76.72 75.24 74.32 74.06
73.58 74.20 74.58 74.50 74.36 74.56 74.02 74.08 73.83 73.88 74.70 75.25 75.44 76.15 77.41 77.33 77.96 78.19 77.07 78.10 78.51 76.89 77.62 78.43 76.37 77.43 75.85 75.88 74.47 73.87 74.13 75.43 76.03 75.73 75.70 75.73 75.73 75.88 75.78 75.91 75.42 75.34 75.11
73.51 74.04 74.42 74.36 74.55 73.91 72.82 71.97 72.17 72.13 73.85 74.78 75.50 77.02 77.87 77.54 77.78 78.43 76.33 76.63 77.10 76.68 76.98 77.54 77.45 76.14 75.89 77.33 73.88 72.57 73.18 73.41 74.76 75.40 76.11 75.50 75.12 75.73 75.77 75.55 75.25 75.87 75.69
73.01 73.80 74.25 74.70 75.11 74.32 72.93 72.91 73.11 73.97 74.37 74.14 75.46 76.98 77.57 77.69 78.26 77.16 76.79 75.97 77.78 75.79 77.06 76.93 77.25 76.49 75.48 76.39 73.15 71.82 68.12 69.96 72.55 74.61 75.87 75.36 75.22 74.70 74.00 74.66 74.95 76.28 76.47
72.71 73.41 74.07 74.76 75.25 74.57 74.11 73.69 74.59 74.47 75.11 76.26 75.24 77.96 76.53 78.38 77.78 77.87 78.08 77.71 78.08 77.65 75.73 77.48 76.67 76.55 73.46 75.94 74.08 72.70 71.48 67.62 70.56 73.21 74.27 74.61 75.00 74.86 74.77 75.03 75.87 76.62 76.81
72.80 73.86 74.42 75.07 75.11 74.97 74.73 74.15 74.14 71.74 73.01 74.35 73.37 74.47 78.44 77.84 77.90 78.03 78.00 78.28 77.39 78.50 77.20 76.88 76.50 76.66 75.69 73.90 74.09 74.69 74.67 73.41 69.76 69.01 72.69 73.97 74.97 75.24 76.25 75.81 75.13 76.05 76.42
72.96 73.07 73.92 74.96 75.31 75.37 75.27 75.47 73.77 72.64 73.45 73.53 73.38 75.16 77.89 78.68 77.39 77.71 78.10 77.94 77.22 77.21 78.09 77.89 76.98 77.59 76.14 74.78 74.32 75.92 75.70 74.04 73.18 71.60 71.97 70.86 74.06 74.55 75.08 74.84 74.81 74.62 75.75
72.98 73.14 73.35 74.06 74.86 75.27 75.16 75.34 74.75 73.04 73.91 72.75 73.92 73.63 74.14 74.92 76.07 77.65 77.43 77.23 77.64 76.99 76.67 77.20 77.45 77.38 76.88 76.65 75.99 75.02 74.58 72.78 71.92 71.63 71.37 71.32 70.78 72.82 74.55 75.04 75.56 75.66 76.96
MSLP
1013.84 1014.23 1015.21 1015.20 1015.18 1015.29 1015.38 1015.61 1015.88 1016.09 1016.26 1016.40 1016.44 1016.61 1016.78 1016.79 1016.93 1017.06 1017.13 1017.23 1017.17 1017.24 1017.28 1017.39 1017.46 1017.58 1017.68 1017.84 1017.96 1018.13 1018.16 1018.31 1018.55 1018.57 1018.53 1018.61 1018.74 1018.87 1018.92 1018.94 1018.77 1018.53 1019.37
1013.95 1014.03 1015.20 1015.38 1015.40 1015.44 1015.54 1015.82 1016.03 1016.32 1016.54 1016.63 1016.75 1016.85 1016.97 1017.08 1017.15 1017.25 1017.39 1017.41 1017.32 1017.29 1017.31 1017.51 1017.60 1017.71 1017.83 1017.91 1018.06 1018.12 1018.23 1018.41 1018.48 1018.54 1018.45 1018.49 1018.72 1018.89 1019.02 1018.99 1018.75 1018.92 1019.50
1014.16 1014.30 1014.94 1015.42 1015.29 1015.52 1015.73 1015.91 1016.19 1016.44 1016.67 1016.77 1016.94 1017.05 1017.17 1017.26 1017.27 1017.40 1017.53 1017.56 1017.49 1017.45 1017.51 1017.55 1017.69 1017.84 1018.01 1018.09 1018.10 1018.19 1018.31 1018.48 1018.57 1018.52 1018.43 1017.66 1018.15 1018.89 1018.99 1019.19 1019.20 1019.44 1019.72
1014.08 1013.76 1014.59 1015.53 1015.59 1015.73 1015.98 1016.12 1016.39 1016.63 1016.85 1016.98 1017.10 1017.25 1017.24 1017.30 1017.39 1017.52 1017.60 1017.63 1017.67 1017.69 1017.74 1017.74 1017.76 1017.95 1018.12 1018.14 1018.20 1018.34 1018.38 1018.53 1018.74 1018.40 1017.52 1017.23 1017.62 1018.98 1019.08 1019.36 1019.53 1019.54 1019.80
1014.25 1013.90 1014.83 1015.67 1015.72 1015.87 1016.18 1016.30 1016.56 1016.78 1016.92 1017.07 1017.19 1017.34 1017.36 1017.45 1017.58 1017.68 1017.68 1017.79 1017.84 1017.88 1017.94 1017.98 1017.95 1018.05 1018.21 1018.27 1018.32 1018.44 1018.48 1018.64 1018.72 1018.03 1017.83 1017.42 1017.24 1018.78 1019.04 1019.37 1019.62 1019.57 1019.71
1013.98 1013.75 1015.45 1015.74 1015.87 1016.00 1016.29 1016.51 1016.69 1016.91 1017.04 1017.15 1017.28 1017.41 1017.48 1017.64 1017.73 1017.85 1017.85 1017.86 1017.91 1018.03 1018.07 1018.13 1018.11 1018.20 1018.26 1018.42 1018.49 1018.50 1018.54 1018.64 1018.50 1017.72 1017.79 1018.16 1017.68 1018.98 1018.98 1019.05 1019.19 1019.46 1019.84
1013.59 1014.21 1015.31 1015.85 1016.00 1016.21 1016.38 1016.68 1016.87 1017.03 1017.17 1017.28 1017.44 1017.52 1017.62 1017.71 1017.83 1017.94 1018.00 1017.96 1018.05 1018.11 1018.18 1018.21 1018.33 1018.37 1018.36 1018.48 1018.59 1018.57 1018.48 1018.48 1017.96 1017.67 1017.96 1017.63 1018.46 1019.39 1019.45 1019.46 1019.62 1019.95 1020.07
1013.98 1013.87 1015.12 1016.06 1016.27 1016.36 1016.55 1016.78 1017.00 1017.12 1017.24 1017.38 1017.51 1017.64 1017.69 1017.86 1018.03 1018.14 1018.11 1018.28 1018.33 1018.34 1018.34 1018.42 1018.50 1018.54 1018.48 1018.51 1018.59 1018.63 1018.52 1018.37 1017.73 1017.84 1018.04 1017.94 1019.32 1019.52 1019.66 1019.82 1019.96 1020.17 1020.33
1014.16 1014.22 1015.14 1015.52 1016.29 1016.56 1016.74 1016.95 1017.20 1017.30 1017.34 1017.54 1017.70 1017.87 1017.80 1017.99 1018.15 1018.20 1018.33 1018.40 1018.51 1018.56 1018.62 1018.50 1018.59 1018.51 1018.36 1018.34 1018.58 1018.69 1018.73 1018.62 1017.70 1017.67 1017.78 1017.85 1019.39 1019.61 1019.70 1019.92 1020.05 1020.19 1020.36
1014.63 1014.95 1015.14 1015.72 1016.17 1016.00 1016.43 1017.16 1017.35 1017.45 1017.56 1017.88 1017.89 1018.02 1017.96 1018.11 1018.18 1018.29 1018.45 1018.48 1018.62 1018.65 1018.67 1018.58 1018.66 1018.66 1018.54 1018.59 1018.57 1018.68 1018.79 1018.67 1017.50 1017.91 1017.82 1018.56 1019.55 1019.71 1019.70 1019.88 1020.04 1020.22 1020.38
1014.94 1014.98 1014.62 1015.54 1015.93 1015.77 1016.23 1017.07 1017.47 1017.66 1017.78 1018.00 1018.09 1018.12 1017.92 1017.05 1017.52 1017.94 1018.19 1018.38 1018.50 1018.46 1018.61 1018.67 1018.77 1018.91 1018.87 1018.80 1018.87 1018.83 1018.73 1017.80 1017.78 1017.51 1017.64 1019.19 1019.58 1019.80 1019.84 1019.91 1020.13 1020.31 1020.48
1014.63 1014.74 1014.47 1014.68 1015.23 1015.92 1016.22 1017.10 1017.13 1017.44 1017.69 1017.84 1018.09 1017.69 1017.25 1017.37 1017.34 1017.37 1018.02 1018.54 1018.57 1018.57 1018.60 1018.65 1018.72 1018.86 1018.86 1017.51 1017.94 1018.82 1018.05 1017.42 1017.63 1017.70 1017.66 1019.15 1019.41 1019.58 1019.73 1019.84 1019.98 1020.19 1020.38
1014.43 1014.90 1015.00 1015.26 1015.81 1016.10 1016.30 1016.96 1017.54 1017.15 1017.30 1017.72 1018.13 1018.26 1017.37 1017.39 1017.53 1017.39 1017.33 1017.72 1017.78 1018.32 1018.43 1018.61 1018.70 1018.73 1017.60 1017.50 1017.30 1017.45 1017.53 1017.78 1017.27 1017.52 1018.14 1019.04 1019.25 1019.41 1019.53 1019.66 1019.82 1020.02 1020.23
1014.42 1014.80 1015.16 1015.25 1016.09 1016.15 1016.20 1016.42 1016.48 1017.08 1017.27 1017.07 1017.96 1018.09 1017.52 1017.37 1017.46 1017.41 1017.01 1017.11 1017.78 1017.41 1018.64 1018.73 1018.74 1018.91 1018.29 1018.01 1017.65 1017.43 1017.72 1017.60 1017.19 1017.10 1017.74 1018.85 1019.15 1019.27 1019.38 1019.46 1019.66 1019.84 1020.03
1014.35 1014.67 1015.17 1015.80 1016.24 1016.35 1016.58 1016.33 1016.38 1016.47 1016.97 1016.78 1017.32 1017.59 1017.19 1016.99 1017.22 1017.16 1017.39 1017.21 1017.39 1017.91 1018.01 1018.31 1018.31 1019.11 1019.01 1018.20 1017.75 1017.85 1017.64 1017.44 1017.37 1017.31 1017.23 1018.49 1018.92 1019.16 1019.29 1019.36 1019.49 1019.66 1019.85
1014.38 1014.55 1014.90 1015.65 1016.02 1016.44 1016.48 1017.06 1017.34 1016.79 1017.84 1017.17 1016.88 1017.23 1017.77 1017.30 1017.22 1016.98 1017.25 1017.12 1017.33 1017.61 1017.66 1017.86 1018.10 1018.42 1018.86 1017.98 1017.90 1017.60 1017.78 1017.56 1017.59 1017.60 1017.31 1017.65 1018.64 1018.99 1019.15 1019.29 1019.38 1019.57 1019.75
1013.92 1014.56 1014.70 1015.43 1015.77 1016.44 1016.62 1017.13 1017.55 1017.69 1017.90 1017.07 1017.06 1017.44 1017.52 1017.57 1017.41 1017.34 1016.97 1017.01 1016.98 1017.28 1017.85 1017.99 1018.30 1018.02 1018.11 1017.77 1017.69 1017.68 1017.64 1017.52 1017.39 1017.64 1017.57 1017.30 1017.95 1018.88 1019.11 1019.24 1019.39 1019.59 1019.75
1013.62 1014.10 1014.79 1015.10 1015.61 1016.34 1016.72 1016.79 1017.27 1017.92 1017.10 1016.78 1016.75 1016.78 1017.27 1017.42 1017.47 1017.43 1016.88 1016.73 1016.83 1017.24 1017.36 1017.26 1017.61 1017.60 1017.56 1017.64 1017.44 1017.39 1017.41 1017.07 1017.18 1017.40 1017.25 1017.27 1017.23 1017.21 1018.85 1019.22 1019.36 1019.50 1019.64
1013.27 1013.98 1014.71 1015.10 1015.38 1016.06 1016.68 1016.63 1016.68 1016.88 1016.85 1016.54 1016.50 1016.63 1016.97 1017.11 1017.20 1017.06 1016.57 1016.68 1017.38 1016.87 1017.00 1017.43 1017.15 1017.31 1017.33 1017.57 1017.34 1017.04 1017.08 1016.94 1016.81 1016.74 1017.02 1017.54 1017.34 1017.57 1017.39 1018.74 1019.31 1019.38 1019.42
1012.87 1013.75 1014.39 1014.92 1015.31 1015.99 1016.32 1016.64 1016.40 1016.57 1016.44 1016.37 1016.31 1016.38 1016.78 1016.73 1016.93 1017.06 1016.58 1016.87 1017.10 1016.61 1016.89 1017.24 1017.46 1017.13 1017.14 1017.00 1016.47 1016.80 1016.87 1016.83 1016.62 1016.60 1016.69 1017.20 1017.09 1017.40 1017.42 1017.84 1018.34 1018.45 1019.12
1012.43 1013.25 1013.99 1014.77 1015.29 1015.83 1016.14 1016.17 1016.17 1016.21 1016.40 1016.27 1016.19 1016.40 1016.64 1016.69 1016.70 1016.92 1016.45 1016.67 1016.84 1016.93 1016.98 1017.17 1017.34 1017.15 1016.70 1016.98 1016.53 1016.47 1016.64 1016.82 1016.66 1016.43 1016.49 1016.64 1016.69 1017.23 1017.29 1017.68 1017.79 1017.41 1018.15
1012.06 1012.86 1013.57 1014.38 1015.09 1015.62 1015.80 1015.86 1015.88 1016.00 1016.05 1016.54 1015.91 1016.09 1016.38 1016.39 1016.58 1016.64 1016.68 1016.40 1016.60 1016.57 1016.94 1017.13 1017.23 1016.85 1016.68 1016.82 1016.14 1015.91 1015.64 1016.34 1016.14 1016.11 1016.39 1016.48 1016.89 1016.83 1016.99 1017.43 1017.48 1017.82 1017.79
1011.50 1012.35 1013.13 1014.06 1014.68 1015.35 1015.54 1015.87 1016.19 1016.43 1016.43 1016.18 1015.84 1016.10 1015.93 1016.09 1016.22 1016.49 1016.63 1016.51 1016.63 1016.81 1016.16 1016.91 1016.88 1016.94 1016.23 1016.61 1016.87 1015.98 1015.60 1014.59 1015.23 1015.90 1016.28 1016.27 1016.53 1016.45 1016.16 1016.74 1017.22 1017.51 1017.77
1011.01 1011.81 1012.62 1013.59 1014.29 1015.04 1015.55 1015.45 1015.55 1015.45 1016.01 1016.12 1015.96 1015.98 1015.92 1016.16 1016.05 1016.17 1016.32 1016.37 1016.62 1016.31 1016.55 1016.51 1016.50 1016.83 1017.08 1015.99 1016.47 1016.25 1016.39 1016.12 1014.87 1014.90 1015.69 1015.93 1016.38 1016.31 1016.32 1016.32 1016.54 1017.17 1017.57
1010.60 1011.32 1012.16 1013.20 1013.92 1014.43 1015.07 1015.35 1015.47 1015.46 1015.07 1015.65 1016.19 1016.28 1016.22 1016.25 1016.15 1015.92 1016.00 1016.04 1016.35 1016.44 1016.36 1016.69 1016.71 1016.75 1016.46 1016.11 1015.97 1015.99 1016.24 1015.92 1015.97 1015.02 1014.98 1015.47 1015.64 1015.88 1016.02 1016.33 1016.06 1016.34 1016.95
1010.16 1010.97 1011.69 1012.74 1013.53 1014.15 1014.65 1015.20 1015.40 1015.18 1015.11 1015.10 1015.50 1015.65 1015.45 1015.43 1015.48 1015.67 1015.63 1016.05 1016.00 1016.17 1016.19 1016.25 1016.54 1016.66 1016.64 1016.40 1016.28 1016.40 1015.67 1015.32 1015.14 1014.94 1014.64 1015.20 1015.89 1015.86 1015.66 1015.95 1016.17 1016.23 1016.59
Wind_Speed
9 13 9 10 12 14 15 14 14 13 12 12 12 12 11 11 9 7 6 5 6 5 6 7 7 5 2 4 4 1 2 0 7 3 5 7 8 7 7 7 8 14 13
11 13 10 10 12 13 15 14 13 12 12 12 12 12 10 8 7 6 5 5 5 3 5 7 7 7 5 4 4 4 5 6 6 4 7 9 8 7 7 6 3 15 13
14 12 13 10 12 13 13 13 12 12 11 11 9 10 8 7 6 5 5 5 5 5 6 6 7 7 7 6 6 6 7 7 6 5 7 10 11 7 9 10 11 12 12
16 14 13 9 10 13 13 13 11 11 10 9 8 8 7 7 6 6 6 5 6 7 7 6 6 7 7 7 7 5 6 6 7 4 6 6 12 8 10 11 9 13 12
7 11 15 10 11 13 13 12 10 10 8 7 7 8 7 7 6 7 7 6 7 7 6 6 5 5 5 7 6 5 4 6 3 7 6 4 8 9 10 9 11 10 12
13 12 14 12 12 13 12 10 9 9 7 6 7 7 7 7 7 7 7 7 7 6 6 5 5 4 5 5 4 3 2 2 7 6 5 6 12 9 6 7 7 8 7
12 11 13 10 11 12 12 10 7 8 7 7 6 6 7 8 7 7 7 6 5 6 6 5 4 3 2 2 3 2 2 2 6 3 3 7 13 9 8 6 6 7 8
10 12 12 9 6 10 10 10 8 7 6 7 7 8 7 7 7 7 6 6 5 5 4 4 3 2 1 2 3 4 3 6 5 3 4 5 10 7 7 6 7 8 8
9 9 9 11 8 9 10 9 7 7 8 8 9 7 9 7 8 6 5 5 4 4 3 3 3 3 3 6 5 7 6 5 6 5 4 5 8 4 5 5 5 6 5
8 9 8 8 9 9 10 10 9 9 10 10 10 7 8 7 6 6 5 6 3 3 4 4 3 4 2 4 8 7 4 3 4 6 3 9 8 4 4 4 4 5 4
9 10 13 11 10 7 8 10 9 10 11 9 6 6 8 6 8 8 8 5 5 5 5 6 6 6 5 5 4 5 5 2 4 3 3 9 5 5 4 6 6 7 6
11 10 8 9 9 7 5 10 9 9 6 5 2 6 4 2 2 5 3 4 4 5 6 7 8 8 8 8 9 6 7 4 5 4 4 6 3 4 4 4 5 6 6
12 7 6 7 7 8 6 7 4 6 5 5 5 4 4 4 5 6 4 6 5 8 2 3 1 3 8 6 4 5 4 6 4 4 10 6 2 3 5 5 4 5 6
11 10 9 9 8 6 6 6 7 6 5 5 6 8 4 5 3 2 3 2 4 2 4 2 2 3 9 6 9 6 7 7 5 3 9 8 5 4 4 5 6 6 6
11 11 9 8 8 7 6 5 6 6 5 6 7 6 3 2 3 4 2 3 2 1 4 4 4 1 4 8 7 6 7 8 7 5 3 10 5 5 5 6 6 6 6
10 11 11 10 9 8 7 6 2 5 4 5 4 5 5 5 3 3 4 3 3 2 3 3 4 4 4 5 6 6 7 7 6 6 5 7 6 5 7 6 6 5 6
12 11 11 10 10 9 7 9 6 3 5 6 4 5 5 5 5 4 4 4 3 3 3 4 5 5 5 6 4 3 6 6 7 7 6 6 11 9 7 7 6 5 4
11 12 11 10 11 10 8 7 6 5 7 5 5 4 5 5 5 5 4 3 2 3 3 4 5 5 4 4 3 4 4 5 6 6 6 5 4 5 9 9 7 5 5
12 12 11 11 11 11 9 7 7 7 6 6 5 5 6 6 6 6 4 1 2 2 3 1 4 5 1 3 5 3 3 4 6 7 5 5 5 5 4 12 8 5 6
12 13 12 10 10 10 8 6 6 5 6 5 5 5 5 5 6 5 4 3 4 4 2 2 5 2 4 4 5 5 4 4 4 5 6 6 6 6 6 4 9 10 10
13 13 13 12 11 9 8 8 7 6 6 5 6 5 6 5 6 5 5 4 5 4 3 3 3 4 2 1 3 4 5 5 6 5 5 5 5 7 6 5 5 4 10
14 14 14 13 13 10 8 7 6 4 6 6 6 5 7 6 6 6 4 4 2 5 3 4 4 5 1 1 3 2 6 5 5 6 5 4 5 6 7 8 7 4 5
15 15 15 14 14 12 10 8 6 4 5 6 6 5 6 6 7 6 5 5 2 6 4 2 4 4 4 2 4 5 2 1 6 5 6 5 6 5 6 6 6 6 5
14 14 15 15 14 13 12 10 9 7 4 4 5 6 3 7 7 7 6 5 4 6 3 3 4 4 5 2 3 3 3 6 3 5 5 5 6 4 3 5 5 5 4
14 13 14 15 15 14 13 11 9 9 7 6 4 3 5 5 5 7 5 5 5 3 2 4 3 3 3 5 3 1 1 3 3 3 2 6 5 6 5 5 5 5 6
13 12 13 15 15 15 14 14 11 10 7 6 7 5 6 5 7 8 7 5 5 5 5 5 4 5 5 4 3 4 4 2 3 4 1 5 5 3 5 5 5 3 2
Wind_Direction
151 127 150 137 122 114 109 106 101 102 108 121 127 120 110 106 110 108 104 95 92 80 90 98 105 125 121 120 92 59 336 50 117 92 139 135 129 127 127 133 173 119 121
151 140 152 141 132 118 116 113 111 108 104 109 120 123 118 117 115 113 109 99 81 76 96 93 98 104 105 114 101 84 84 86 100 132 139 140 138 141 145 151 253 110 126
140 152 158 147 134 126 118 117 112 113 113 115 114 119 123 120 121 127 107 95 91 96 95 94 100 107 108 106 93 82 79 84 113 132 195 176 118 135 137 130 111 130 134
162 156 150 145 134 118 116 110 110 109 113 120 127 125 122 125 121 117 109 108 103 104 94 96 93 90 95 95 87 73 74 76 101 202 206 101 116 120 130 133 125 134 134
117 167 114 146 129 123 118 113 117 117 121 121 126 124 135 127 118 119 114 114 101 104 105 105 98 88 81 87 92 87 70 68 94 232 110 80 109 105 131 147 164 150 169
159 140 131 147 134 126 124 123 127 122 123 135 126 131 138 132 121 118 120 112 113 117 123 114 103 97 88 90 89 77 54 65 263 99 143 112 68 100 100 122 109 127 153
142 147 146 142 140 138 133 129 129 130 137 137 133 136 131 132 117 126 125 124 125 126 129 123 112 94 89 106 113 93 351 318 290 121 91 81 97 110 121 125 136 142 138
146 153 137 134 147 146 143 144 150 135 147 146 139 130 135 125 124 127 132 127 136 139 153 130 135 108 77 73 86 67 5 305 195 134 88 109 96 115 129 132 137 147 159
177 132 155 154 159 151 148 147 142 135 139 135 125 117 124 130 127 131 125 130 148 166 172 182 156 146 159 116 102 89 77 344 280 84 170 149 114 113 139 149 155 154 157
144 170 144 152 158 178 147 139 139 137 133 133 131 130 137 138 131 136 157 147 168 181 205 220 204 204 170 144 120 121 108 198 293 143 159 85 132 157 161 179 173 158 161
171 172 159 165 171 176 149 136 139 134 133 134 138 131 172 185 174 166 90 131 195 212 221 237 233 218 212 203 148 140 225 183 206 212 131 104 144 175 192 186 187 182 182
173 181 183 166 160 153 153 140 176 130 160 143 160 189 214 126 108 343 124 193 224 235 252 261 251 235 230 231 183 192 258 205 228 168 106 126 190 207 226 213 201 197 193
172 184 193 170 157 176 155 136 163 156 157 154 141 242 169 170 177 209 172 188 193 189 264 231 181 304 283 277 261 242 242 250 230 205 104 138 209 215 222 222 213 206 211
190 175 193 173 167 189 169 172 171 155 162 177 155 226 157 214 159 246 223 166 216 195 115 223 153 273 287 271 277 251 214 229 234 231 139 156 212 226 228 218 218 216 215
190 176 183 170 178 178 191 163 166 153 185 172 176 180 204 227 191 199 151 220 202 195 169 211 207 80 299 290 277 249 251 231 246 252 220 155 204 225 215 217 218 218 220
193 180 170 182 181 182 193 145 181 169 164 215 184 162 209 253 209 178 198 204 227 202 237 220 234 167 239 250 272 240 233 233 221 239 231 161 172 187 198 216 215 210 223
195 180 173 188 178 187 180 172 189 135 211 201 198 198 226 228 191 281 206 223 223 185 229 232 207 221 210 241 252 231 232 208 210 212 233 253 146 170 191 206 195 205 232
196 174 183 188 172 178 177 184 138 192 216 198 212 207 198 209 236 209 203 213 111 206 204 227 208 209 204 215 232 220 209 198 205 199 227 237 225 156 171 191 193 202 210
187 175 187 184 180 177 168 191 189 171 216 205 207 207 182 209 218 255 224 148 221 215 232 299 262 237 207 254 242 197 201 215 199 199 162 222 172 237 189 157 180 187 207
175 183 192 181 173 182 171 198 194 194 213 212 212 212 196 224 209 223 227 260 251 259 247 132 257 200 273 239 211 179 198 207 203 204 192 218 195 213 206 188 183 190 190
184 185 186 191 168 183 189 194 192 198 213 211 216 217 214 229 212 200 247 214 240 257 292 281 247 222 226 208 205 185 186 196 204 202 203 209 193 210 211 200 233 227 166
187 189 190 191 178 190 193 200 207 213 182 211 225 201 228 227 205 213 253 248 246 283 240 259 277 290 245 258 289 246 185 177 195 205 192 211 181 212 208 204 219 222 292
186 192 189 190 181 190 198 191 183 182 226 221 221 205 223 209 189 210 214 271 269 273 262 235 238 272 289 175 273 310 311 22 164 168 177 196 178 206 192 174 194 201 223
190 188 188 188 186 186 193 199 205 209 193 213 216 220 262 202 192 201 222 223 224 255 319 237 228 290 267 229 202 223 321 339 293 146 179 169 190 229 200 188 160 187 211
183 185 185 187 188 190 190 223 199 222 192 175 235 218 253 190 218 234 218 238 232 263 232 273 257 240 212 300 291 247 228 225 247 327 238 158 180 181 181 224 167 200 175
178 183 183 185 193 195 194 202 213 205 218 212 199 211 226 217 199 213 226 231 241 228 243 233 223 232 273 287 265 259 260 263 177 227 211 168 158 267 186 189 205 205 181